Brookings, OR

1:44 PM PDT on April 26, 2017 (GMT -0700)
Brookings State

Weather History for KBOK - July, 2013

Change the Weather History Date:

Tuesday, July 30, 2013

  Actual Average Record
Temperature  
Mean Temperature 54 °F -  
Max Temperature 59 °F 66 °F 97 °F (1950)
Min Temperature 50 °F 52 °F 42 °F (1945)
Degree Days  
Heating Degree Days 10    
Growing Degree Days 4 (Base 50)    
Moisture  
Dew Point 52 °F    
Average Humidity 96    
Maximum Humidity 100    
Minimum Humidity 80    
Precipitation  
Precipitation 0.00 in - - ()
Sea Level Pressure  
Sea Level Pressure 30.13 in    
Wind  
Wind Speed 2 mph (SSW)    
Max Wind Speed 7 mph    
Max Gust Speed -    
Visibility 3 miles    
Events Fog    
Averages and records for this station are not official NWS values.
T = Trace of Precipitation, MM = Missing Value Source: NWS Daily Summary

Daily Weather History Graph

Daily Weather History Graph

Search for Another Location

Airport or City:

Trip Planner

Search our weather history database for the weather conditions in past years. The results will help you decide how hot, cold, wet, or windy it might be!

Date:

Astronomy

Jul. 30, 2013 Rise Set
Actual Time 6:08 AM PDT 8:37 PM PDT
Civil Twilight 5:37 AM PDT 9:09 PM PDT
Nautical Twilight 4:57 AM PDT 9:48 PM PDT
Astronomical Twilight 4:13 AM PDT 10:32 PM PDT
Moon 12:31 AM PDT (7/30) 3:03 PM PDT (7/30)
Length of Visible Light 15h 32m
Length of Day
14h 28m
Last Quarter, 40% of the Moon is Illuminated
Jul 30
Last Quarter
Aug 6
New
Aug 14
First Quarter
Aug 20
Full
Aug 28
Last Quarter

Hourly Weather History & Observations

Time (PDT) Temp. Dew Point Humidity Pressure Visibility Wind Dir Wind Speed Gust Speed Precip Events Conditions
12:56 AM 52.0 °F 50.9 °F 96% 30.09 in 2.0 mi Calm Calm - N/A   Overcast
1:01 AM 51.8 °F 51.8 °F 100% 30.08 in 1.2 mi Calm Calm - N/A   Overcast
1:16 AM 51.8 °F 51.8 °F 100% 30.08 in 0.8 mi South 4.6 mph - N/A   Overcast
1:23 AM 51.8 °F 51.8 °F 100% 30.08 in 0.2 mi South 3.5 mph - N/A Fog Fog
1:56 AM 50.9 °F 50.9 °F 100% 30.09 in 0.2 mi Variable 3.5 mph - N/A Fog Fog
2:07 AM 51.8 °F 51.8 °F 100% 30.08 in 0.2 mi Calm Calm - N/A Fog Fog
2:15 AM 51.8 °F 51.8 °F 100% 30.08 in 0.2 mi Calm Calm - N/A Fog Fog
2:56 AM 50.9 °F 50.9 °F 100% 30.09 in 0.2 mi Calm Calm - N/A Fog Fog
3:13 AM 51.8 °F 51.8 °F 100% 30.08 in 0.5 mi Calm Calm - N/A Fog Fog
3:27 AM 51.8 °F 51.8 °F 100% 30.08 in 1.0 mi Calm Calm - N/A   Overcast
3:39 AM 51.8 °F 51.8 °F 100% 30.08 in 0.5 mi NNW 3.5 mph - N/A Fog Fog
3:56 AM 50.9 °F 50.9 °F 100% 30.09 in 0.5 mi Calm Calm - N/A Fog Fog
4:15 AM 51.8 °F 51.8 °F 100% 30.09 in 0.2 mi Calm Calm - N/A Fog Fog
4:34 AM 51.8 °F 51.8 °F 100% 30.09 in 0.2 mi Calm Calm - N/A Fog Fog
4:56 AM 50.9 °F 50.9 °F 100% 30.10 in 0.2 mi Calm Calm - N/A Fog Fog
5:56 AM 50.9 °F 50.9 °F 100% 30.10 in 0.5 mi Calm Calm - N/A Fog Fog
6:05 AM 51.8 °F 51.8 °F 100% 30.10 in 1.0 mi Calm Calm - N/A   Overcast
6:09 AM 51.8 °F 51.8 °F 100% 30.10 in 2.5 mi Calm Calm - N/A   Overcast
6:16 AM 51.8 °F 51.8 °F 100% 30.10 in 4.0 mi North 3.5 mph - N/A   Overcast
6:29 AM 51.8 °F 51.8 °F 100% 30.11 in 2.0 mi Calm Calm - N/A   Overcast
6:34 AM 51.8 °F 51.8 °F 100% 30.11 in 1.2 mi Calm Calm - N/A   Overcast
6:37 AM 51.8 °F 51.8 °F 100% 30.12 in 0.8 mi Calm Calm - N/A   Overcast
6:42 AM 51.8 °F 51.8 °F 100% 30.11 in 0.2 mi Calm Calm - N/A Fog Fog
6:56 AM 50.9 °F 50.9 °F 100% 30.13 in 0.2 mi Calm Calm - N/A Fog Fog
7:11 AM 51.8 °F 51.8 °F 100% 30.12 in 0.2 mi Calm Calm - N/A Fog Fog
7:20 AM 51.8 °F 51.8 °F 100% 30.12 in 0.2 mi Calm Calm - N/A Fog Fog
7:56 AM 50.9 °F 50.9 °F 100% 30.13 in 0.5 mi Calm Calm - N/A Fog Fog
8:07 AM 51.8 °F 51.8 °F 100% 30.12 in 0.2 mi Calm Calm - N/A Fog Fog
8:40 AM 51.8 °F 51.8 °F 100% 30.13 in 0.2 mi SSE 3.5 mph - N/A Fog Fog
8:56 AM 52.0 °F 52.0 °F 100% 30.14 in 0.2 mi SSE 4.6 mph - N/A Fog Fog
9:07 AM 51.8 °F 51.8 °F 100% 30.13 in 0.8 mi SSE 4.6 mph - N/A   Overcast
9:11 AM 51.8 °F 51.8 °F 100% 30.13 in 1.2 mi South 4.6 mph - N/A   Overcast
9:18 AM 51.8 °F 51.8 °F 100% 30.13 in 1.5 mi Variable 3.5 mph - N/A   Overcast
9:29 AM 53.6 °F 53.6 °F 100% 30.14 in 3.0 mi WSW 3.5 mph - N/A   Overcast
9:38 AM 53.6 °F 51.8 °F 94% 30.13 in 0.8 mi West 3.5 mph - N/A   Overcast
9:41 AM 53.6 °F 51.8 °F 94% 30.13 in 0.2 mi West 3.5 mph - N/A Fog Fog
9:56 AM 52.9 °F 52.0 °F 97% 30.15 in 0.2 mi Variable 4.6 mph - N/A Fog Fog
10:16 AM 51.8 °F 51.8 °F 100% 30.14 in 0.2 mi SW 3.5 mph - N/A Fog Fog
10:41 AM 51.8 °F 51.8 °F 100% 30.14 in 0.2 mi South 3.5 mph - N/A Fog Fog
10:48 AM 53.6 °F 51.8 °F 94% 30.15 in 0.5 mi Variable 3.5 mph - N/A Fog Fog
10:56 AM 52.9 °F 52.0 °F 97% 30.15 in 1.0 mi Calm Calm - N/A   Overcast
10:59 AM 53.6 °F 51.8 °F 94% 30.15 in 1.8 mi Calm Calm - N/A   Overcast
11:04 AM 53.6 °F 51.8 °F 94% 30.15 in 3.0 mi Calm Calm - N/A   Overcast
11:56 AM 54.0 °F 52.0 °F 93% 30.17 in 6.0 mi West 3.5 mph - N/A   Overcast
12:56 PM 54.9 °F 52.0 °F 90% 30.17 in 9.0 mi SE 3.5 mph - N/A   Overcast
1:56 PM 56.8 °F 52.9 °F 87% 30.16 in 10.0 mi SW 5.8 mph - N/A   Overcast
2:56 PM 56.8 °F 52.9 °F 87% 30.17 in 9.0 mi WSW 5.8 mph - N/A   Overcast
3:56 PM 59.0 °F 52.9 °F 80% 30.17 in 10.0 mi Variable 5.8 mph - N/A   Mostly Cloudy
4:28 PM 59.0 °F 53.6 °F 82% 30.16 in 10.0 mi Variable 4.6 mph - N/A   Mostly Cloudy
4:36 PM 59.0 °F 53.6 °F 82% 30.16 in 10.0 mi SW 5.8 mph - N/A   Partly Cloudy
4:56 PM 59.0 °F 52.9 °F 80% 30.17 in 9.0 mi Variable 3.5 mph - N/A   Clear
5:56 PM 59.0 °F 52.9 °F 80% 30.16 in 9.0 mi Variable 6.9 mph - N/A   Partly Cloudy
6:56 PM 57.9 °F 52.9 °F 83% 30.15 in 10.0 mi SSE 5.8 mph - N/A   Clear
7:56 PM 55.9 °F 52.9 °F 89% 30.15 in 10.0 mi Variable 3.5 mph - N/A   Clear
8:56 PM 54.0 °F 52.0 °F 93% 30.15 in 9.0 mi ESE 3.5 mph - N/A   Clear
9:44 PM 53.6 °F 51.8 °F 94% 30.15 in 9.0 mi Calm Calm - N/A   Partly Cloudy
9:56 PM 52.9 °F 52.0 °F 97% 30.16 in 9.0 mi Calm Calm - N/A   Partly Cloudy
10:08 PM 53.6 °F 51.8 °F 94% 30.16 in 8.0 mi Calm Calm - N/A   Mostly Cloudy
10:49 PM 53.6 °F 51.8 °F 94% 30.17 in 4.0 mi Calm Calm - N/A   Overcast
10:56 PM 52.9 °F 52.0 °F 97% 30.17 in 4.0 mi Calm Calm - N/A   Overcast
11:08 PM 53.6 °F 53.6 °F 100% 30.16 in 1.5 mi Calm Calm - N/A   Overcast
11:10 PM 53.6 °F 51.8 °F 94% 30.16 in 1.0 mi Calm Calm - N/A   Overcast
11:56 PM 52.9 °F 52.9 °F 100% 30.16 in 3.0 mi Calm Calm - N/A   Overcast